Powrót do katalogu

FENGYUN 1C DEB

LostSSO
NORAD 38810·DEBRIS·🇨🇳 China

Wystrzelony May 10, 1999 z Taiyuan Satellite Launch Center

Loading…

Następne Przeloty (najbliższe 24 godziny)

TLE

NieaktualneSource: Space-Track

Epoka: Sep 5, 2022, 07:19 UTC

1 38810U 99025EVA 22248.30547576  .00001636  00000-0  10012-2 0  9992
2 38810  99.4220  55.3091 0139625 106.9154  13.2319 14.02619472605470

Śledź FENGYUN 1C DEB w czasie rzeczywistym z AllMySat

Download on the App Store